TimeCST,TemperatureF,Dew PointF,Humidity,Sea Level PressureIn,VisibilityMPH,Wind Direction,Wind SpeedMPH,Gust SpeedMPH,PrecipitationIn,Events,Conditions,WindDirDegrees,DateUTC
12:53 AM,15.1,12.0,88,30.30,6.0,Calm,Calm,-,N/A,,Clear,0,2013-01-02 06:53:00
1:53 AM,14.0,10.9,88,30.32,7.0,Calm,Calm,-,N/A,,Clear,0,2013-01-02 07:53:00
2:53 AM,15.1,12.0,88,30.32,7.0,South,3.5,-,N/A,,Clear,190,2013-01-02 08:53:00
3:53 AM,15.1,12.9,91,30.30,7.0,Calm,Calm,-,N/A,,Clear,0,2013-01-02 09:53:00
4:53 AM,15.1,12.0,88,30.30,7.0,Calm,Calm,-,N/A,,Clear,0,2013-01-02 10:53:00
5:53 AM,15.1,12.0,88,30.30,6.0,SSE,4.6,-,N/A,,Clear,150,2013-01-02 11:53:00
6:53 AM,15.1,12.0,88,30.29,7.0,SSE,4.6,-,N/A,,Clear,150,2013-01-02 12:53:00
7:53 AM,15.1,12.9,91,30.28,8.0,Calm,Calm,-,N/A,,Clear,0,2013-01-02 13:53:00
8:53 AM,19.9,17.1,89,30.29,8.0,South,4.6,-,N/A,,Clear,190,2013-01-02 14:53:00
9:53 AM,23.0,18.0,81,30.30,8.0,SSW,9.2,-,N/A,,Clear,210,2013-01-02 15:53:00
10:53 AM,27.0,19.0,72,30.30,10.0,SSW,10.4,-,N/A,,Clear,210,2013-01-02 16:53:00
11:53 AM,30.0,19.9,66,30.27,10.0,SW,9.2,-,N/A,,Clear,230,2013-01-02 17:53:00
12:53 PM,32.0,21.0,64,30.24,10.0,SW,6.9,-,N/A,,Clear,230,2013-01-02 18:53:00
1:53 PM,34.0,19.9,56,30.21,10.0,SSW,10.4,-,N/A,,Clear,200,2013-01-02 19:53:00
2:53 PM,35.1,19.9,54,30.21,10.0,SW,11.5,-,N/A,,Clear,230,2013-01-02 20:53:00
3:53 PM,35.1,19.9,54,30.21,10.0,SW,9.2,-,N/A,,Clear,230,2013-01-02 21:53:00
4:53 PM,32.0,21.0,64,30.23,10.0,SW,10.4,-,N/A,,Clear,220,2013-01-02 22:53:00
5:53 PM,27.0,21.0,78,30.25,10.0,SSW,5.8,-,N/A,,Clear,210,2013-01-02 23:53:00
6:53 PM,25.0,19.9,81,30.26,10.0,SSW,5.8,-,N/A,,Clear,210,2013-01-03 00:53:00
7:53 PM,25.0,19.9,81,30.27,10.0,South,5.8,-,N/A,,Clear,190,2013-01-03 01:53:00
8:53 PM,28.0,21.9,78,30.28,9.0,SW,6.9,-,N/A,,Clear,220,2013-01-03 02:53:00
9:53 PM,26.1,21.9,84,30.30,7.0,WSW,6.9,-,N/A,,Clear,240,2013-01-03 03:53:00
10:53 PM,24.1,21.0,88,30.31,7.0,West,5.8,-,N/A,,Clear,260,2013-01-03 04:53:00
11:53 PM,23.0,21.0,92,30.31,8.0,WNW,4.6,-,N/A,,Clear,290,2013-01-03 05:53:00